Location: Choisy
(48.7685°N, 2.4187°E)
Time: 10:13:26
(UTC+00:00)

ATLAS 3B R/B - Pass Details

Date: 08 December 2023
Orbit: 947 x 1247 km, 63.8° (Epoch: 10 February)

Event Time Altitude Azimuth Distance (km) Brightness Sun altitude
Exits shadow 02:40:23 26° 54° (NE) 2,116 4.5 -46.3°
Drops below altitude 10° 02:43:27 10° 45° (NE) 3,126 5.6 -45.8°
Sets 02:46:20 0° 42° (NE) 4,126 6.4 -45.4°
